Hauptseite
METAR-TAF:

METAR-TAF

Flughäfen :

Frontone, Italien

Breite: 43-31N, Länge: 012-44E, Höhe: 570 m

Beobachtung

Neuester Wetterbericht von vor 37 Minuten, um 20:55 UTC
Wind 6 kt aus Südwest
Temperatur 0°C
Luftfeuchtigkeit 80%
Luftdruck 1016 hPa
Sichtweite 10 km oder mehr
Leicht bewölkt in der Höhe von 2400 ft

METAR: LIVF 152055Z 22006KT 9999 FEW024 00/M03 Q1016 RMK FEW MON S W CLD SCT NC VAL NIL VIS MIN 9999

Zeit: 22:32 (21:32 UTC)


TAF: fehlend

Wetterbeobachtungen und Prognosen von mehr als 4000 Flughäfen (METAR und TAF Bericht).

Die verfügbaren Stationen werden durch gelbe und rote Markierungen auf der Karte dargestellt.

Führen Sie die Maus auf sie, um den Namen der Station zu sehen.

Darauf klicken, um die Beobachtung von Wetterbeobachtungen und Prognosen zu sehen.

Um die Karte zu ändern : klicken Sie auf den grünen Tasten mit einem schwarzen Kreuz Zum Vergrößern, auf den grünen Button mit einem Gedankenstrich zu verkleinern, oder auf die grünen Pfeile für benachbarte Karten.


METAR-TAF: